Home > Weather > Graz > Past weeks

Flag for Austria Weather for the Past 2 Weeks in Graz, Styria, Austria

Now
37 °F

Broken clouds.


Feels Like: 34 °F
Forecast: 29 / 44 °F
Wind: 5 mph from South

Location: Graz-Thalerhof-Flughafen

Current Time: Feb 12, 2016 at 4:18:57 PM

Latest Report: Feb 12, 2016 at 3:50 PM


Visibility: N/A

Pressure: 29.62 "Hg

Humidity: 87%

Dew point: 34 °F

Location of GrazLocation

Historic Weather in Graz — Graph

°F

Graz Temperature Yesterday

Maximum temperature yesterday: 50 °F (at 2:50 PM)
Minimum temperature yesterday: 23 °F (at 6:20 AM)
Average temperature yesterday: 35 °F

High & Low Weather Summary for the Past Weeks

 TemperatureHumidityPressure
High61 °F (Jan 28, 2:20 PM)100% (Jan 28, 10:50 PM)30.42 "Hg (Jan 28, 10:50 PM)
Low23 °F (Feb 11, 6:20 AM)31% (Feb 4, 1:20 PM)29.27 "Hg (Feb 10, 3:20 AM)
Average39 °F80%29.98 "Hg
* Reported Jan 28 2:20 PM — Feb 12 2:50 PM, Graz, Weather by CustomWeather, © 2016

Note: Actual official high and low records may vary slightly from our data, if they occured in-between our weather recording intervals... More about our weather records

Advertising

Graz Weather History for the Previous 24 Hours

 ConditionsComfort  
Time TempWeatherWind HumidityBarometerVisibility
2:50 PM
Fri, Feb 12
36 °FBroken clouds.2 mph93%29.65 "Hg6 mi
2:20 PM36 °FBroken clouds.3 mph93%29.65 "Hg6 mi
1:50 PM36 °FBroken clouds.6 mph93%29.65 "Hg4 mi
1:20 PM34 °FLight rain. Fog.5 mph100%29.68 "Hg3 mi
12:50 PM34 °FLight rain. Fog.3 mph93%29.68 "Hg2 mi
12:20 PM34 °FLight snow. Fog.2 mph93%29.71 "Hg3 mi
11:50 AM34 °FSnow. Fog.2 mph87%29.71 "Hg2 mi
11:20 AM34 °FLight snow. Broken clouds.1 mph81%29.71 "Hg4 mi
10:50 AM32 °FBroken clouds.1 mph87%29.71 "HgN/A
10:20 AM32 °FSunny.1 mph87%29.71 "Hg10 mi
9:50 AM30 °FSunny.1 mph93%29.71 "Hg10 mi
9:20 AM30 °FSunny.1 mph93%29.71 "Hg10 mi
8:50 AM28 °FSunny.2 mph100%29.74 "Hg10 mi
8:20 AM28 °FSunny.1 mph93%29.71 "Hg10 mi
7:50 AM28 °FPassing clouds.5 mph93%29.71 "HgN/A
7:20 AM27 °FSunny.1 mph93%29.71 "Hg10 mi
6:50 AM25 °FClear.2 mph93%29.71 "Hg10 mi
6:20 AM25 °FClear.1 mph100%29.74 "Hg10 mi
5:50 AM25 °FClear.1 mph93%29.74 "Hg10 mi
5:20 AM27 °FPassing clouds.2 mph100%29.74 "HgN/A
4:50 AM23 °FPassing clouds.2 mph100%29.74 "HgN/A
4:20 AM23 °FPassing clouds.1 mph100%29.74 "Hg1 mi
3:50 AM25 °FCold.1 mph93%29.74 "Hg1 mi
3:20 AM25 °FMixture of precip. Overcast.1 mph93%29.74 "Hg4 mi
2:50 AM27 °FChilly.2 mph93%29.74 "HgN/A
2:20 AM25 °FCold.2 mph93%29.77 "HgN/A
1:50 AM27 °FChilly.2 mph93%29.77 "HgN/A
1:20 AM25 °FCold.1 mph93%29.74 "HgN/A
12:50 AM27 °FPassing clouds.2 mph93%29.77 "HgN/A
12:20 AM28 °FPassing clouds.2 mph93%29.77 "HgN/A
11:50 PM
Thu, Feb 11
27 °FPassing clouds.1 mph86%29.77 "HgN/A
10:20 PM30 °FClear.2 mph80%29.77 "Hg10 mi
9:50 PM30 °FClear.1 mph80%29.77 "Hg10 mi
9:20 PM32 °FClear.1 mph80%29.77 "Hg10 mi
8:50 PM32 °FClear.1 mph80%29.77 "Hg10 mi
8:20 PM34 °FClear.2 mph75%29.77 "Hg10 mi
7:50 PM34 °FClear.3 mph70%29.77 "Hg10 mi
7:20 PM34 °FClear.1 mph70%29.77 "Hg10 mi
6:50 PM36 °FPassing clouds.2 mph70%29.74 "HgN/A
6:20 PM39 °FPassing clouds.1 mph61%29.74 "HgN/A
5:50 PM41 °FPassing clouds.2 mph53%29.74 "HgN/A
5:20 PM45 °FPassing clouds.3 mph46%29.74 "HgN/A
4:50 PM46 °FPassing clouds.5 mph46%29.71 "HgN/A
4:20 PM46 °FScattered clouds.6 mph43%29.71 "HgN/A
Weather by CustomWeather, © 2016

See weather overviewHow to use our weather pages